Location: Erdweis
(48.5167°N, 15.3500°E)
Time: 14:46:04
(UTC+00:00)

NOSS 2-2 (C) - Pass Details

Date: 26 January 2021
Orbit: 463 x 1745 km, 63.3° (Epoch: 03 March)

Event Time Altitude Azimuth Distance (km) Brightness Sun altitude
Rises 17:03:14 0° 320° (NW) 2,871 7.4 -12.5°
Reaches altitude 10° 17:05:39 10° 335° (NNW) 2,113 6.4 -12.9°
Maximum altitude 17:09:35 24° 30° (NNE) 1,611 5.3 -13.5°
Enters shadow 17:11:58 19° 64° (ENE) 1,996 5.5 -13.9°
